TimeGMT,TemperatureF,Dew PointF,Humidity,Sea Level PressureIn,VisibilityMPH,Wind Direction,Wind SpeedMPH,Gust SpeedMPH,PrecipitationIn,Events,Conditions,WindDirDegrees,DateUTC
1:00 AM,46.4,46.4,100,29.00,3.7,SE,25.3,-,N/A,Rain,Rain,140,2012-12-14 01:00:00
1:30 AM,46.4,46.4,100,28.94,3.7,SE,28.8,42.6,N/A,Rain,Rain,130,2012-12-14 01:30:00
2:00 AM,46.4,46.4,100,28.91,3.1,SE,29.9,46.0,N/A,Rain,Rain,130,2012-12-14 02:00:00
2:30 AM,46.4,46.4,100,28.91,2.5,SE,31.1,42.6,N/A,Rain,Rain,140,2012-12-14 02:30:00
3:00 AM,46.4,46.4,100,28.88,2.5,SE,27.6,-,N/A,Rain,Rain,140,2012-12-14 03:00:00
3:30 AM,46.4,46.4,100,28.88,2.2,SE,28.8,-,N/A,Rain,Rain,140,2012-12-14 03:30:00
4:00 AM,46.4,46.4,100,28.85,2.2,SE,26.5,-,N/A,Rain,Rain,130,2012-12-14 04:00:00
4:30 AM,46.4,46.4,100,28.82,2.2,SE,24.2,-,N/A,Rain,Light Rain,130,2012-12-14 04:30:00
5:00 AM,46.4,46.4,100,28.80,1.0,SE,19.6,-,N/A,Rain,Light Rain,130,2012-12-14 05:00:00
5:30 AM,48.2,48.2,100,28.77,1.2,SSE,16.1,-,N/A,Rain,Light Rain,150,2012-12-14 05:30:00
6:00 AM,48,48,99,28.77,1,SE,8.9,,,Rain,Light Rain,140,2012-12-14 06:00:00
6:00 AM,48.2,48.2,100,28.74,1.1,SE,9.2,-,N/A,Rain,Light Rain,140,2012-12-14 06:00:00
6:30 AM,48.2,48.2,100,28.74,1.0,South,5.8,-,N/A,Rain,Light Rain,190,2012-12-14 06:30:00
7:00 AM,48.2,48.2,100,28.74,1.1,South,4.6,-,N/A,,Mostly Cloudy,190,2012-12-14 07:00:00
7:30 AM,46.4,46.4,100,28.74,2.8,SW,5.8,-,N/A,,Mostly Cloudy,230,2012-12-14 07:30:00
8:00 AM,46.4,46.4,100,28.74,6.2,SW,5.8,-,N/A,,Mostly Cloudy,230,2012-12-14 08:00:00
8:30 AM,46.4,46.4,100,28.74,4.3,WSW,9.2,-,N/A,Rain,Light Rain,240,2012-12-14 08:30:00
9:00 AM,46.4,46.4,100,28.74,6.2,WSW,10.4,-,N/A,Rain,Light Rain,240,2012-12-14 09:00:00
9:30 AM,44.6,44.6,100,28.74,6.2,West,11.5,-,N/A,,Mostly Cloudy,260,2012-12-14 09:30:00
10:00 AM,42.8,42.8,100,28.74,6.2,West,11.5,-,N/A,,Mostly Cloudy,280,2012-12-14 10:00:00
10:30 AM,42.8,42.8,100,28.74,6.2,West,10.4,-,N/A,,Scattered Clouds,270,2012-12-14 10:30:00
11:00 AM,44.6,42.8,93,28.74,6.2,WSW,11.5,-,N/A,,Scattered Clouds,250,2012-12-14 11:00:00
12:00 PM,46,43,84,28.77,31,WSW,11.2,,,,Partly Cloudy,240,2012-12-14 12:00:00
12:00 PM,46.4,42.8,87,28.74,6.2,WSW,10.4,-,N/A,,Scattered Clouds,240,2012-12-14 12:00:00
12:30 PM,46.4,42.8,87,28.77,6.2,WSW,11.5,-,N/A,,Scattered Clouds,240,2012-12-14 12:30:00
1:00 PM,46.4,42.8,87,28.77,6.2,WSW,8.1,-,N/A,,Scattered Clouds,250,2012-12-14 13:00:00
1:30 PM,46.4,42.8,87,28.77,6.2,WSW,9.2,-,N/A,,Partly Cloudy,250,2012-12-14 13:30:00
2:00 PM,48.2,42.8,82,28.77,6.2,West,11.5,-,N/A,,Partly Cloudy,260,2012-12-14 14:00:00
2:30 PM,46.4,42.8,87,28.77,6.2,West,12.7,-,N/A,,Partly Cloudy,260,2012-12-14 14:30:00
3:00 PM,46.4,41.0,81,28.77,6.2,West,16.1,-,N/A,,Scattered Clouds,260,2012-12-14 15:00:00
3:30 PM,44.6,41.0,87,28.80,6.2,West,10.4,-,N/A,,Scattered Clouds,260,2012-12-14 15:30:00
4:00 PM,44.6,42.8,93,28.80,6.2,WSW,9.2,-,N/A,,Mostly Cloudy,240,2012-12-14 16:00:00
4:30 PM,42.8,41.0,93,28.80,6.2,SW,8.1,-,N/A,,Scattered Clouds,230,2012-12-14 16:30:00
5:00 PM,42.8,41.0,93,28.82,6.2,WSW,6.9,-,N/A,,Scattered Clouds,240,2012-12-14 17:00:00
5:30 PM,42.8,41.0,93,28.82,6.2,WSW,8.1,-,N/A,,Scattered Clouds,240,2012-12-14 17:30:00
6:00 PM,42,41,93,28.86,19,WSW,6.7,,,,Scattered Clouds,240,2012-12-14 18:00:00
6:00 PM,41.0,41.0,100,28.82,6.2,WSW,6.9,-,N/A,,Partly Cloudy,240,2012-12-14 18:00:00
6:30 PM,41.0,41.0,100,28.85,6.2,WSW,8.1,-,N/A,,Partly Cloudy,240,2012-12-14 18:30:00
7:00 PM,41.0,41.0,100,28.85,6.2,SW,9.2,-,N/A,,Partly Cloudy,230,2012-12-14 19:00:00
7:30 PM,39.2,39.2,100,28.85,6.2,SW,10.4,-,N/A,,Partly Cloudy,230,2012-12-14 19:30:00
8:00 PM,41.0,41.0,100,28.88,6.2,SW,12.7,-,N/A,,Partly Cloudy,230,2012-12-14 20:00:00
8:30 PM,41.0,41.0,100,28.88,6.2,SW,11.5,-,N/A,,Partly Cloudy,220,2012-12-14 20:30:00
9:00 PM,41.0,41.0,100,28.88,6.2,SW,11.5,-,N/A,,Partly Cloudy,220,2012-12-14 21:00:00
9:30 PM,42.8,42.8,100,28.88,6.2,SW,10.4,-,N/A,,Partly Cloudy,230,2012-12-14 21:30:00
10:00 PM,42.8,42.8,100,28.91,6.2,SW,11.5,-,N/A,,Mostly Cloudy,230,2012-12-14 22:00:00
10:30 PM,42.8,41.0,93,28.91,6.2,SSW,8.1,-,N/A,,Mostly Cloudy,210,2012-12-14 22:30:00
11:00 PM,41.0,41.0,100,28.91,6.2,SSW,6.9,-,N/A,,Partly Cloudy,200,2012-12-14 23:00:00
11:30 PM,41.0,41.0,100,28.91,6.2,SSW,6.9,-,N/A,,Scattered Clouds,200,2012-12-14 23:30:00